Regional Weather Roundup
Issued by NWS

Home | Current Version | Previous Version | Text Only | Print | Product List | Glossary On
Versions: 1 2 3 4 5 6 7 8 9 10 11 12 13 14 15 16 17 18 19 20 21 22 23 24 25 26 27 28 29 30 31 32 33 34 35 36 37 38 39 40 41 42 43 44 45 46 47 48 49 50
993
ASUS44 KLUB 080610
RWRTX
WEST TEXAS WEATHER ROUNDUP
NATIONAL WEATHER SERVICE LUBBOCK TX
1200 AM CST THU DEC 08 2016

NOTE: "FAIR" INDICATES FEW OR NO CLOUDS BELOW 12,000 FEET WITH NO
SIGNIFICANT WEATHER AND/OR OBSTRUCTIONS TO VISIBILITY.

TXZ004-006>008-010-012-014-016-OKZ002-080700-
TEXAS PANHANDLE/OKLAHOMA PANHANDLE

CITY           SKY/WX    TMP DP  RH WIND       PRES   REMARKS
AMARILLO       CLOUDY    21  17  84 N15       30.47R WCI   8
BORGER         CLOUDY    22  16  78 N14       30.52R WCI   9
CANADIAN       CLOUDY    25  20  79 N8        30.54R WCI  16
DALHART        CLOUDY    20  13  74 NE17      30.47R WCI   5
DUMAS          CLOUDY    19  14  79 N12       30.48R WCI   7
GUYMON         CLOUDY    19  11  70 N14       30.52R WCI   6
HEREFORD       CLOUDY    24  19  82 NE16      30.45R WCI  11
PAMPA          CLOUDY    23  19  84 N13       30.49R WCI  11
PERRYTON       CLOUDY    24  18  77 N17G24    30.50R WCI  10
$$

TXZ026-029-035-045-048-080700-
SOUTHERN PANHANDLE/SOUTH PLAINS/ROLLING PLAINS

CITY           SKY/WX    TMP DP  RH WIND       PRES   REMARKS
CHILDRESS      PTCLDY    30  20  66 N13G24    30.51R WCI  20
SEMINOLE       CLOUDY    33  28  82 NE18G25   30.36R WCI  22
LUBBOCK        CLOUDY    30  18  60 NE18      30.39R WCI  18
PLAINVIEW      CLOUDY    26  17  67 NE18G24   30.41R WCI  13
SNYDER         CLOUDY    34  23  64 NE21G29   30.39R WCI  22
$$

TXZ052-054-060>062-072-078-127-140-154-169-080700-
PERMIAN BASIN/CONCHO VALLEY/BIG COUNTRY/EDWARDS PLATEAU

CITY           SKY/WX    TMP DP  RH WIND       PRES   REMARKS
ABILENE        CLOUDY    37  27  67 N16G23    30.39R WCI  28
BIG SPRING     CLOUDY    37  30  74 NE16G24   30.36R WCI  28
BROWNWOOD      CLOUDY    43  36  75 N12       30.34R
JUNCTION       CLOUDY    46  43  89 NE12      30.26R
MIDLAND        CLOUDY    37  31  78 NE23G29   30.32R WCI  26
ODESSA         CLOUDY    37  30  75 NE24G32   30.33R WCI  26
SAN ANGELO     CLOUDY    43  38  82 NE14G26   30.33R
SONORA         CLOUDY    43  41  93 N15G22    30.30R
SWEETWATER     CLOUDY    36  27  70 N23       30.39R WCI  24
WINK           CLOUDY    39  32  76 NE18G24   30.32R WCI  30
$$

TXZ055-058-074-075-080-082-080700-
FAR WEST/SOUTHWEST MOUNTAINS/TRANS PECOS

CITY           SKY/WX    TMP DP  RH WIND       PRES   REMARKS
ALPINE         CLOUDY    42  41  97 NE9       30.29R VSB 1/4
DRYDEN           N/A     47  45  93 N8        30.21R
EL PASO        CLOUDY    53  34  48 SE5       30.14R
FORT STOCKTON  CLOUDY    40  40 100 NE15      30.27R FOG     WCI  32
GUADALUPE PASS SNOW      33  33 100 NE45      30.21R VSB 1/4 WCI  17
MARFA          CLOUDY    46  33  60 NE14      30.21R
PECOS          CLOUDY    41  35  77 NE13G21   30.32R
PRESIDIO       FAIR      56  33  41 E5        30.10R
$$

TXZ014-016-019-021>030-083-080700
TEXAS TECH WEST TEXAS MESONET/TEXAS PANHANDLE/NORTHERN SOUTH PLAINS

CITY           SKY/WX    TMP DP  RH WIND       PRES   REMARKS
ABERNATHY 5ENE   N/A     28  19  69 NE20      30.44R WCI  15
AMARILLO 9NNE    N/A     21  17  83 N12       30.51R WCI   9
AMARILLO 7SSE    N/A     21  16  81 N13G18    30.49R WCI   8
AMHERST 1NE      N/A     26  17  67 NE18G25   30.43R WCI  13
BOOTLEG 11WNW    N/A     19  14  80 NE12      30.45R WCI   7
CANADIAN 6E      N/A     23  17  77 N17       30.52R WCI   9
CAPROCK CYN SP   N/A     26  20  79 N9        30.50R WCI  16
CHILDRESS 2NNE   N/A     28  21  77 N16       30.52R WCI  16
CLARENDON 2WSW   N/A     23  18  80 N15G21    30.50S WCI  10
CLAUDE 12SW      N/A     20  16  83 N14       30.48R WCI   7
DIMMITT 2NE      N/A     22  17  81 N17       30.43S WCI   8
FLOYDADA 2NNE    N/A     26  18  71 N22       30.43R WCI  12
FRIONA 2NE       N/A     22  16  79 N20       30.44S WCI   6
GOODLETT 3W      N/A     29  23  76 N16       30.52R WCI  17
HART 3N          N/A     23  17  79 N21       30.44R WCI   8
HEREFORD 2NW     N/A     21  16  79 N14G21    30.47R WCI   8
MCLEAN 1E        N/A     22  17  79 N14G21    30.49R WCI   9
MEMPHIS 1NE      N/A     26  20  79 N14G21    30.53R WCI  14
MULESHOE 2SSW    N/A     25  17  72 NE14      30.44R WCI  13
OLTON 6S         N/A     26  17  68 N18G24    30.44R WCI  12
PALO DURO SP     N/A     21  15  78 N12       30.49R WCI   9
PAMPA 2E         N/A     20  17  86 N13       30.50R WCI   7
PLAINVIEW 1S     N/A     26  19  73 NE15G22   30.44R WCI  14
SILVERTON 7ESE   N/A     23  16  74 N14       30.45R WCI  11
TULIA 2ENE       N/A     22  18  84 N16       30.46R WCI   8
TURKEY 2WSW      N/A     26  20  77 N20       30.50R WCI  13
UMBARGER 3NNE    N/A     21  16  81 NE17      30.47R WCI   6
$$

TXZ033>036-039>041-045>048-080700
TEXAS TECH WEST TEXAS MESONET/SOUTH PLAINS

CITY           SKY/WX    TMP DP  RH WIND       PRES   REMARKS
AIKEN 3WSW       N/A     26  18  72 NE17      30.45R WCI  13
ANDREWS 2NE      N/A     34  28  76 NE17G23   30.37R WCI  24
ANTON 6SSW       N/A     28  19  66 NE18G24   30.42R WCI  16
BROWNFIELD 2S    N/A     30  20  65 NE22G30   30.39R WCI  17
DENVR CTY 7WNW   N/A     31  25  78 NE18G25   30.36R WCI  19
GAIL 2ESE        N/A     34  22  61 N17G23    30.39R WCI  23
LAMESA 2SE       N/A     33  23  67 NE18G26   30.38R WCI  21
LEVELLAND 4S     N/A     29  17  62 NE18G25   30.41R WCI  16
LUBBOCK 3WNW     N/A     30  18  60 NE13G20   30.42R WCI  20
MORTON 1ENE      N/A     27  17  66 N20       30.41R WCI  14
ODONNELL 1N      N/A     31  21  66 NE25      30.39R WCI  17
PLAINS 3N        N/A     30  23  75 NE16G23   30.38R WCI  19
RALLS 1SE        N/A     30  18  60 NE17G23   30.43R WCI  18
REESE CENTER     N/A     28  17  62 NE22G28   30.42R WCI  15
SEAGRAVES 1SW    N/A     32  24  72 NE14G25   30.38R WCI  22
SEMINOLE 2NNE    N/A     33  26  75 NE16G25   30.37R WCI  23
SLATON 2NE       N/A     30  18  61 NE22G30   30.41R WCI  17
SNYDER 3E        N/A     34  25  71 N16       30.39R WCI  23
SUNDOWN 8SW      N/A     29  19  66 NE20      30.39R WCI  16
TAHOKA 3NNE      N/A     31  18  59 NE22      30.40R WCI  18
WOLFFORTH 6SSW   N/A     30  17  58 N20       30.40R WCI  17
$$

TXZ031-032-036>038-042>044-080700-
TEXAS TECH WEST TEXAS MESONET/ROLLING PLAINS

CITY           SKY/WX    TMP DP  RH WIND       PRES   REMARKS
ASPERMONT 3NE    N/A     34  24  67 N15G23    30.46R WCI  24
FLUVANNA 3WNW    N/A     32  21  64 N22G30    30.39R WCI  19
GRAHAM 5SSW      N/A     31  20  62 NE26G36   30.39R WCI  17
GUTHRIE 10WSW    N/A     33  21  60 N16G22    30.45S WCI  23
HASKELL 1NW      N/A     34  26  71 N23G29    30.45R WCI  22
JAYTON 1SSE      N/A     33  22  62 NE16G24   30.45R WCI  23
KNOX CITY 3NW    N/A     35  24  63 N18G25    30.48R WCI  24
LK A HENRY 1NW   N/A     34  20  56 NE21G30   30.42R WCI  22
NORTHFIELD 1S    N/A     29  21  74 N12G18    30.51R WCI  19
ODELL 4ENE       N/A     29  24  82 N17       30.54R WCI  17
PADUCAH 10SW     N/A     30  22  71 N15       30.50R WCI  19
POST 1NE         N/A     33  19  57 NE20      30.42R WCI  21
RRING SPRGS 3N   N/A     28  20  74 N18G28    30.46R WCI  15
SEYMOUR 3NW      N/A     35  24  64 N24       30.49R WCI  23
SPUR 1W          N/A     33  21  63 NE17G26   30.44R WCI  21
WEINERT 2NNE     N/A     34  23  62 NE15G21   30.48R WCI  25
WHITE RVR 6NE    N/A     32  19  60 N17       30.42R WCI  20
$$

TXZ052-054-060>062-072-078-127-140-154-169-080700-
TEXAS TECH WEST TEXAS MESONET/PERMIAN BASIN/
CONCHO VALLEY/BIG COUNTRY/EDWARDS PLATEAU

CITY           SKY/WX    TMP DP  RH WIND       PRES   REMARKS
COYANOSA 2N      N/A     41  35  80 NE12G18   30.33R
JUNCTION 1SSW    N/A     46  42  88 N14       30.28S
MERTZON 3NNE     N/A     40  37  87 NE10G17   30.35R WCI  34
SAN ANGELO 7NW   N/A     40  33  75 N8        30.36R
STRLNG CT 4WSW   N/A     36  32  84 N15       30.36S WCI  27
ST LAWRNCE 5SW   N/A     37  33  84 NE22      30.32R WCI  26
SWEETWATR 11SW   N/A     34  27  75 NE14      30.38R WCI  25
WALL 1E          N/A     41  37  86 NE20      30.35R
$$

TXZ055-058-074-075-080-082-080700-
TEXAS TECH WEST TEXAS MESONET/FAR WEST/SOUTHWEST MOUNTAINS/TRANS PECOS

CITY           SKY/WX    TMP DP  RH WIND       PRES   REMARKS
PRSMN GAP BBNP   N/A     46  44  93 NE31      30.19R
GUADLPE MTN NP   N/A     32  31  98 NE15      30.29R WCI  22
$$




USA.gov is the U.S. government's official web portal to all federal, state and local government web resources and services.